Volver al catálogo

STARLINK-5930

ActivoComunicacionesVLEO
NORAD 55928·PAYLOAD·🇺🇸 United States

Lanzado Mar 17, 2023 desde Vandenberg Space Force Base

Loading…

Próximos Pases (próximas 24 horas)

TLE

ActualizadoSource: CelesTrak SupGP

Época: Sep 15, 2026, 02:03 UTC

1 55928C 23037Q   26258.08590278 -.00007198  00000+0 -60324-3 0  2588
2 55928  70.0022 186.7685 0003043 272.5799 339.9909 14.98333789    12

Sigue STARLINK-5930 en tiempo real con AllMySat

Download on the App Store